Weather History for Lakeview AWS, OR

Change the Weather History Date:

Wednesday, June 4, 2014

  Actual Average Record
Temperature  
Mean Temperature 63 °F -  
Max Temperature 78 °F 70 °F 89 °F (1969)
Min Temperature 48 °F 42 °F 26 °F (2001)
Degree Days  
Heating Degree Days 2    
Growing Degree Days 13 (Base 50)    
Moisture  
Dew Point 27 °F    
Average Humidity 29    
Maximum Humidity 50    
Minimum Humidity 12    
Precipitation  
Precipitation 0.00 in - - ()
Sea Level Pressure  
Sea Level Pressure 30.09 in    
Wind  
Wind Speed 11 mph (NNW)    
Max Wind Speed 16 mph    
Max Gust Speed 20 mph    
Visibility 10 miles    
Events      
Averages and records for this station are not official NWS values.
T = Trace of Precipitation, MM = Missing Value Source: NWS Daily Summary

Daily Weather History Graph

Daily Weather History Graph

Search for Another Location

Airport:

Trip Planner

Search our weather history database for the weather conditions in past years. The results will help you decide how hot, cold, wet, or windy it might be!

Date:

Astronomy

Jun. 04, 2014 Rise Set
Actual Time 5:26 AM PDT 8:33 PM PDT
Civil Twilight 4:52 AM PDT 9:07 PM PDT
Nautical Twilight 4:09 AM PDT 9:51 PM PDT
Astronomical Twilight 3:17 AM PDT 10:43 PM PDT
Moon 11:55 AM PDT (6/4) 12:30 AM PDT (6/4)
Length of Visible Light 16h 14m
Length of Day
15h 06m
Waxing Crescent, 40% of the Moon is Illuminated
Jun 4
Waxing Crescent
Jun 5
First Quarter
Jun 12
Full
Jun 19
Last Quarter
Jun 27
New

Hourly Weather History & Observations

Time (PDT) Temp. Dew Point Humidity Pressure Visibility Wind Dir Wind Speed Gust Speed Precip Events Conditions
12:15 AM 53.6 °F 24.8 °F 33% 30.08 in 10.0 mi North 11.5 mph - N/A   Clear
12:35 AM 53.6 °F 24.8 °F 33% 30.09 in 10.0 mi North 12.7 mph - N/A   Clear
12:55 AM 53.6 °F 26.6 °F 35% 30.09 in 10.0 mi NNW 11.5 mph - N/A   Clear
1:15 AM 51.8 °F 26.6 °F 38% 30.09 in 10.0 mi NNW 10.4 mph - N/A   Clear
1:35 AM 51.8 °F 26.6 °F 38% 30.09 in 10.0 mi North 13.8 mph - N/A   Clear
1:55 AM 50.0 °F 26.6 °F 40% 30.09 in 10.0 mi North 15.0 mph - N/A   Clear
2:15 AM 51.8 °F 26.6 °F 38% 30.09 in 10.0 mi NNW 13.8 mph - N/A   Clear
2:35 AM 50.0 °F 28.4 °F 43% 30.09 in 10.0 mi NNW 13.8 mph - N/A   Clear
2:55 AM 51.8 °F 28.4 °F 41% 30.09 in 10.0 mi NNW 13.8 mph 19.6 mph N/A   Clear
3:15 AM 48.2 °F 28.4 °F 46% 30.09 in 10.0 mi NNW 13.8 mph - N/A   Clear
3:35 AM 48.2 °F 28.4 °F 46% 30.10 in 10.0 mi NNW 10.4 mph - N/A   Clear
3:55 AM 48.2 °F 28.4 °F 46% 30.10 in 10.0 mi NNW 12.7 mph - N/A   Clear
4:15 AM 48.2 °F 28.4 °F 46% 30.09 in 10.0 mi NNW 11.5 mph - N/A   Clear
4:35 AM 48.2 °F 28.4 °F 46% 30.09 in 10.0 mi NNW 12.7 mph 18.4 mph N/A   Clear
4:55 AM 50.0 °F 28.4 °F 43% 30.10 in 10.0 mi NNW 15.0 mph 19.6 mph N/A   Clear
5:15 AM 48.2 °F 28.4 °F 46% 30.10 in 10.0 mi NNW 12.7 mph - N/A   Clear
5:35 AM 48.2 °F 28.4 °F 46% 30.10 in 10.0 mi NNW 15.0 mph - N/A   Clear
5:55 AM 48.2 °F 28.4 °F 46% 30.10 in 10.0 mi NNW 13.8 mph - N/A   Clear
6:15 AM 48.2 °F 30.2 °F 50% 30.11 in 10.0 mi NNW 15.0 mph - N/A   Clear
6:35 AM 50.0 °F 30.2 °F 47% 30.11 in 10.0 mi NNW 16.1 mph - N/A   Clear
6:55 AM 53.6 °F 30.2 °F 41% 30.11 in 10.0 mi NNW 13.8 mph 19.6 mph N/A   Clear
7:15 AM 53.6 °F 30.2 °F 41% 30.12 in 10.0 mi NNW 13.8 mph - N/A   Clear
7:35 AM 55.4 °F 30.2 °F 38% 30.12 in 10.0 mi NNW 13.8 mph - N/A   Clear
7:55 AM 57.2 °F 30.2 °F 36% 30.13 in 10.0 mi NNW 13.8 mph 18.4 mph N/A   Clear
8:15 AM 59.0 °F 30.2 °F 34% 30.13 in 10.0 mi NNW 15.0 mph - N/A   Clear
8:35 AM 60.8 °F 30.2 °F 31% 30.13 in 10.0 mi NNW 12.7 mph - N/A   Clear
8:55 AM 62.6 °F 32.0 °F 32% 30.13 in 10.0 mi North 9.2 mph - N/A   Clear
9:15 AM 64.4 °F 32.0 °F 30% 30.13 in 10.0 mi NNW 9.2 mph - N/A   Clear
9:35 AM 66.2 °F 30.2 °F 26% 30.13 in 10.0 mi North 8.1 mph - N/A   Clear
9:55 AM 66.2 °F 30.2 °F 26% 30.13 in 10.0 mi NW 6.9 mph - N/A   Clear
10:15 AM 68.0 °F 30.2 °F 24% 30.13 in 10.0 mi NNW 5.8 mph - N/A   Clear
10:35 AM 69.8 °F 30.2 °F 23% 30.13 in 10.0 mi North 4.6 mph - N/A   Clear
10:55 AM 71.6 °F 30.2 °F 22% 30.13 in 10.0 mi West 5.8 mph - N/A   Clear
11:15 AM 71.6 °F 28.4 °F 20% 30.13 in 10.0 mi NE 4.6 mph - N/A   Clear
11:35 AM 71.6 °F 28.4 °F 20% 30.13 in 10.0 mi West 4.6 mph - N/A   Clear
12:15 PM 73.4 °F 26.6 °F 18% 30.12 in 10.0 mi NW 5.8 mph - N/A   Clear
12:35 PM 73.4 °F 23.0 °F 15% 30.12 in 10.0 mi Calm Calm - N/A   Clear
12:55 PM 73.4 °F 21.2 °F 14% 30.11 in 10.0 mi NNW 4.6 mph - N/A   Clear
1:15 PM 75.2 °F 19.4 °F 12% 30.10 in 10.0 mi Calm Calm - N/A   Clear
1:35 PM 75.2 °F 19.4 °F 12% 30.10 in 9.0 mi North 6.9 mph - N/A   Clear
1:55 PM 78.8 °F 24.8 °F 14% 30.09 in 10.0 mi North 6.9 mph - N/A   Clear
2:15 PM 78.8 °F 21.2 °F 12% 30.09 in 10.0 mi NNW 6.9 mph - N/A   Clear
2:35 PM 78.8 °F 23.0 °F 13% 30.09 in 10.0 mi WNW 8.1 mph - N/A   Clear
2:55 PM 78.8 °F 21.2 °F 12% 30.08 in 10.0 mi South 5.8 mph - N/A   Clear
3:15 PM 78.8 °F 24.8 °F 14% 30.08 in 10.0 mi NW 8.1 mph - N/A   Clear
3:35 PM 78.8 °F 24.8 °F 14% 30.07 in 10.0 mi West 5.8 mph - N/A   Clear
3:55 PM 78.8 °F 23.0 °F 13% 30.07 in 10.0 mi NNW 4.6 mph - N/A   Clear
4:15 PM 78.8 °F 23.0 °F 13% 30.06 in 10.0 mi North 4.6 mph - N/A   Clear
4:35 PM 78.8 °F 26.6 °F 15% 30.06 in 10.0 mi NNE 5.8 mph - N/A   Clear
4:55 PM 78.8 °F 24.8 °F 14% 30.06 in 10.0 mi East 3.5 mph - N/A   Clear
5:15 PM 78.8 °F 26.6 °F 15% 30.05 in 10.0 mi NE 6.9 mph - N/A   Clear
5:35 PM 78.8 °F 24.8 °F 14% 30.05 in 10.0 mi NNE 6.9 mph - N/A   Clear
5:55 PM 78.8 °F 24.8 °F 14% 30.04 in 10.0 mi NW 6.9 mph - N/A   Clear
6:15 PM 78.8 °F 24.8 °F 14% 30.04 in 10.0 mi NW 5.8 mph - N/A   Clear
6:35 PM 78.8 °F 23.0 °F 13% 30.04 in 10.0 mi North 8.1 mph - N/A   Clear
6:55 PM 78.8 °F 21.2 °F 12% 30.04 in 10.0 mi North 8.1 mph - N/A   Clear
7:15 PM 75.2 °F 24.8 °F 15% 30.04 in 10.0 mi North 9.2 mph - N/A   Clear
7:35 PM 73.4 °F 26.6 °F 18% 30.04 in 10.0 mi North 9.2 mph - N/A   Clear
8:15 PM 66.2 °F 24.8 °F 21% 30.05 in 10.0 mi NNW 9.2 mph - N/A   Clear
8:35 PM 60.8 °F 30.2 °F 31% 30.05 in 10.0 mi North 5.8 mph - N/A   Clear
8:55 PM 55.4 °F 28.4 °F 36% 30.05 in 10.0 mi NNW 10.4 mph - N/A   Clear
9:15 PM 53.6 °F 26.6 °F 35% 30.06 in 10.0 mi NNW 10.4 mph - N/A   Clear
9:35 PM 53.6 °F 28.4 °F 38% 30.06 in 10.0 mi NNW 8.1 mph - N/A   Clear
9:55 PM 51.8 °F 28.4 °F 41% 30.07 in 10.0 mi NW 9.2 mph - N/A   Clear
10:15 PM 48.2 °F 28.4 °F 46% 30.07 in 10.0 mi NNW 6.9 mph - N/A   Clear
10:35 PM 48.2 °F 26.6 °F 43% 30.08 in 10.0 mi NW 12.7 mph - N/A   Clear
10:55 PM 51.8 °F 24.8 °F 35% 30.09 in 10.0 mi NNW 11.5 mph - N/A   Clear
11:15 PM 51.8 °F 24.8 °F 35% 30.09 in 10.0 mi NW 11.5 mph - N/A   Clear
11:35 PM 53.6 °F 23.0 °F 30% 30.09 in 10.0 mi NNW 10.4 mph - N/A   Clear
11:55 PM 59.0 °F 21.2 °F 23% 30.10 in 10.0 mi North 15.0 mph - N/A   Clear